Location: North Mitre
(40.7833°S, 175.4667°E)
Time: 03:28:27
(UTC+00:00)

SL-16 R/B - Pass Details

Date: 04 August 2024
Orbit: 985 x 1006 km, 99.7° (Epoch: 07 September)

Event Time Altitude Azimuth Distance (km) Brightness Sun altitude
Rises 16:31:31 0° 169° (S) 3,761 5.8 -32.2°
Reaches altitude 10° 16:34:02 10° 172° (S) 2,802 5.0 -31.7°
Enters shadow 16:37:18 32° 183° (S) 1,663 3.6 -31.1°
